Vertical_Velocity
-6 11 -5 -3 -3 -2 0 2 1 -0 0 2 -0 -4 -5 16 -13 -3 -6 -2 -0 -4 -0 11 7 -4 0 4 2 10 6 5 5 5 4 8 4 4 1 3 1 -4 3 4
5 13 -2 -5 2 -1 -4 0 -1 -8 -10 -1 -0 -9 -9 2 -9 -2 -3 -1 -5 -5 -4 -3 -1 -0 3 2 -0 -2 -1 -0 -7 -1 -3 -5 -4 -6 -6 -7 -2 -4 1 -1
-3 -2 -1 -3 1 -8 -3 -3 -3 4 -6 6 1 3 14 -9 -4 -9 -4 -1 -4 -5 0 -1 -3 2 0 3 2 3 1 1 -2 -5 -0 0 -5 1 3 6 4 -0 2 0
0 -7 -5 -0 6 -4 -8 -1 -3 -0 -1 -0 5 -12 28 3 -2 -3 -6 -3 -4 -2 -1 -0 -4 -4 -3 -6 -4 4 3 0 2 0 -5 4 5 -1 5 1 1 -3 -0 -2
4 -0 -3 1 -1 -2 -7 -4 -5 2 2 1 5 0 31 -10 9 13 6 0 -2 1 -0 2 2 2 -4 2 1 1 -0 -0 3 3 2 -5 -1 5 4 3 7 8 8 4
-4 -5 -2 -5 -4 2 -5 1 -6 11 -7 2 11 3 -20 18 12 3 -5 -0 0 -7 -9 -8 -6 -10 -9 -5 -12 -6 -2 -4 0 2 3 -2 -6 1 0 6 6 8 8 10
10 13 -4 -5 -8 4 0 -8 -5 -8 7 -2 16 -1 -15 -18 35 6 2 -6 -2 -6 -10 -3 -1 -6 -5 -7 -5 0 -7 -9 -5 -6 -1 2 -2 1 6 9 6 12 -1 6
-1 3 -6 -3 -4 -3 1 -3 4 1 1 -4 -12 -4 2 7 2 0 -9 -13 -20 15 12 8 0 7 2 -0 -4 -3 1 -2 2 -1 1 -1 2 0 -2 4 6 5 14 10
-3 11 11 -9 -2 -1 -4 11 -3 1 -8 8 -8 -23 -3 22 11 12 -1 -12 11 9 6 -6 -1 4 3 2 -4 -7 -10 3 3 5 6 4 1 0 -1 3 5 8 7 7
10 -7 -1 0 -2 2 -5 -1 -0 0 0 -1 -5 -17 -12 6 6 -1 1 25 15 17 2 3 2 -3 -5 -3 -7 -1 -1 -6 2 4 4 -1 2 5 2 6 6 3 -0 6
11 4 -7 -5 17 3 13 5 12 12 8 2 0 -14 -6 -16 -6 14 -3 -36 -28 -7 -13 -8 0 3 -1 -5 -4 1 -3 -5 -4 2 4 2 8 5 7 15 -2 5 5 9
-4 -5 -5 -14 -6 7 -4 -1 7 12 -14 -5 16 -47 -13 19 22 11 8 3 3 6 -6 2 3 6 -7 -14 -6 -4 -3 -6 -6 0 -5 -1 4 1 -1 3 -1 4 1 3
-4 6 -4 -11 5 0 8 -13 4 6 10 -1 13 -33 -6 -8 -14 15 14 1 2 3 1 -2 1 -11 -9 0 1 0 -0 -1 -3 -2 -3 1 3 4 3 -0 2 3 5 1
-3 -1 4 0 -2 11 -2 -6 -13 22 14 -3 -13 -15 -14 2 -1 3 18 -5 4 -3 1 -2 -10 -6 -5 -3 -9 -8 -2 -5 -1 -1 -0 -5 2 1 1 -1 2 4 2 -1
-2 -11 0 -11 2 -1 -6 -9 -9 7 5 25 -16 2 -6 6 20 3 4 4 -0 -2 -8 -4 4 -5 -5 -1 -3 -5 -4 -7 -3 1 -2 1 -6 -3 3 -2 0 -0 -1 0
6 -11 1 -21 -2 3 2 -18 3 2 -4 -2 -5 -7 7 16 -2 1 -6 -7 -6 -4 3 -2 1 -1 -0 1 -9 -3 3 3 -0 -2 -1 2 8 8 1 6 1 -2 -2 -2
4 13 6 -13 -8 -3 -17 -7 11 12 11 11 11 -14 16 3 -2 -1 -8 2 -10 -12 -8 0 -2 -4 -4 -6 -5 -2 -2 0 4 2 5 13 12 2 1 -0 -2 -3 -1 -1
9 7 15 -5 -3 3 -1 -15 18 5 2 -8 -7 -11 17 9 -5 -7 12 2 -0 7 2 -1 -5 -3 1 -0 -4 -1 -3 5 3 8 15 3 -3 -2 -1 -1 -1 -1 -1 0
8 0 3 -2 1 -22 -28 -24 16 11 -11 -5 5 -6 6 -1 -13 -1 -7 -4 -5 -13 -12 -10 -7 -6 -3 -2 3 1 -0 3 5 6 0 0 -3 -1 0 -0 0 0 -2 -0
-1 8 10 3 10 4 -21 -8 -4 7 -20 16 26 -5 14 -5 -11 -6 3 5 -6 -2 -0 -9 0 -1 -5 -0 1 -0 -0 -3 2 -0 -1 -0 -0 -0 -1 0 1 -1 -1 -1
-5 -5 -8 -3 1 -11 -16 12 10 14 -20 -23 -5 10 -11 -1 7 -5 -5 3 -0 1 -4 6 -2 -5 -4 -1 -4 -1 0 -1 -2 1 -0 2 0 -2 0 1 1 -3 -1 -2
11 13 -5 5 3 -11 26 13 19 20 10 7 -3 1 -16 1 20 6 4 -6 -1 -9 -2 -1 -6 -2 -2 -1 1 4 3 0 3 2 2 3 -0 -1 -0 -0 -1 -1 -1 -2
3 -16 0 8 -12 -0 6 -1 9 2 2 -7 9 4 10 -1 4 0 -4 -2 -2 -6 2 2 1 -2 -2 1 -1 2 3 0 1 0 -0 -0 -1 1 0 -1 -1 -3 -1 -1
-1 -14 -19 12 14 -30 7 -2 10 4 8 0 17 -3 2 -1 -3 -2 -2 1 -4 -2 -5 -1 1 3 5 2 1 0 -2 4 1 1 -0 -1 -1 -2 0 0 -1 -1 -0 -1
-11 19 -2 -12 -14 -13 18 2 7 -8 8 26 13 4 -12 2 1 0 -4 1 -1 -3 -1 -3 -0 2 3 -0 0 -2 2 2 1 -0 -1 -1 -3 -3 -0 2 -2 -2 3 -4
-3 -5 5 -35 3 13 -17 1 12 -1 30 15 -9 -6 -2 10 -6 -4 -1 -2 -0 0 -2 -0 2 1 0 1 0 -4 0 -1 -0 -2 -2 -1 -1 -1 -2 -1 2 4 1 1
Height
3157 3157 3157 3156 3155 3155 3154 3152 3149 3146 3145 3142 3138 3135 3134 3133 3131 3130 3129 3129 3128 3128 3128 3128 3123 3120 3118 3116 3114 3113 3110 3108 3105 3104 3101 3098 3095 3093 3091 3089 3083 3082 3081 3080
3157 3157 3155 3154 3156 3155 3153 3150 3148 3145 3143 3140 3133 3129 3130 3128 3127 3126 3126 3125 3124 3124 3123 3123 3120 3117 3115 3113 3110 3108 3106 3102 3098 3098 3094 3092 3089 3086 3082 3081 3077 3073 3075 3071
3156 3155 3154 3154 3156 3153 3152 3149 3146 3144 3139 3135 3133 3124 3126 3126 3124 3123 3123 3123 3122 3120 3119 3117 3115 3113 3109 3108 3106 3103 3099 3095 3091 3089 3089 3083 3081 3084 3080 3075 3070 3065 3063 3060
3155 3153 3153 3154 3154 3151 3149 3147 3144 3141 3140 3137 3134 3130 3127 3124 3123 3122 3123 3123 3121 3119 3116 3114 3111 3108 3104 3101 3099 3098 3095 3091 3088 3083 3080 3083 3076 3071 3072 3070 3066 3061 3056 3051
3155 3154 3152 3153 3151 3150 3148 3144 3140 3138 3137 3135 3132 3131 3126 3124 3124 3122 3122 3121 3119 3116 3114 3111 3109 3106 3103 3099 3095 3093 3091 3089 3086 3082 3076 3071 3072 3067 3065 3063 3058 3055 3052 3047
3154 3152 3152 3151 3150 3149 3146 3142 3136 3134 3135 3134 3130 3132 3124 3122 3123 3122 3121 3118 3114 3112 3110 3107 3105 3101 3097 3094 3089 3089 3086 3082 3079 3075 3071 3065 3060 3060 3055 3054 3050 3047 3044 3041
3155 3152 3150 3150 3149 3149 3146 3143 3138 3136 3133 3132 3131 3132 3125 3122 3121 3119 3117 3114 3111 3108 3103 3100 3097 3093 3089 3087 3085 3080 3074 3069 3067 3064 3061 3056 3051 3047 3047 3044 3039 3036 3031 3029
3154 3153 3152 3149 3149 3148 3147 3147 3146 3145 3139 3136 3131 3127 3122 3122 3118 3117 3114 3112 3109 3106 3102 3098 3094 3089 3085 3080 3078 3075 3070 3065 3060 3054 3048 3045 3041 3037 3035 3033 3028 3024 3023 3018
3155 3152 3152 3148 3148 3148 3146 3147 3146 3143 3140 3139 3132 3126 3121 3119 3119 3116 3115 3111 3107 3103 3098 3093 3089 3085 3079 3074 3069 3066 3062 3059 3054 3050 3044 3037 3032 3027 3022 3020 3014 3012 3009 3004
3157 3152 3149 3149 3147 3145 3146 3146 3144 3143 3141 3133 3126 3127 3120 3117 3113 3110 3110 3109 3103 3099 3092 3088 3083 3077 3072 3068 3064 3058 3053 3048 3045 3040 3034 3028 3022 3017 3013 3007 3002 2999 2996 2992
3155 3154 3150 3147 3146 3146 3146 3143 3144 3141 3139 3133 3125 3120 3119 3114 3109 3111 3107 3103 3096 3092 3086 3081 3076 3070 3063 3059 3055 3049 3042 3037 3032 3028 3022 3017 3012 3007 3003 2998 2992 2989 2985 2984
3152 3151 3147 3143 3141 3143 3142 3141 3141 3138 3135 3132 3125 3110 3114 3112 3110 3103 3101 3097 3092 3085 3079 3075 3069 3063 3056 3051 3046 3040 3032 3025 3021 3015 3009 3004 3000 2995 2992 2988 2983 2980 2977 2975
3151 3150 3146 3142 3142 3141 3141 3139 3137 3134 3130 3125 3123 3105 3109 3107 3103 3101 3094 3087 3082 3077 3072 3065 3061 3054 3047 3042 3036 3029 3022 3015 3008 3002 2995 2990 2988 2985 2982 2977 2974 2972 2968 2964
3150 3148 3149 3147 3143 3142 3137 3134 3129 3127 3122 3112 3113 3097 3102 3101 3097 3091 3085 3077 3074 3069 3065 3059 3053 3046 3039 3033 3026 3019 3012 3004 2996 2989 2983 2978 2976 2974 2971 2968 2965 2962 2959 2955
3147 3144 3144 3141 3138 3136 3132 3126 3120 3117 3113 3110 3096 3100 3095 3095 3090 3081 3076 3070 3064 3060 3055 3050 3044 3036 3030 3022 3015 3009 3002 2992 2984 2978 2974 2970 2966 2964 2963 2959 2956 2954 2951 2947
3144 3137 3136 3132 3131 3130 3125 3119 3111 3106 3105 3101 3096 3091 3093 3086 3079 3073 3066 3061 3056 3051 3046 3039 3032 3027 3019 3013 3005 2998 2990 2982 2975 2970 2966 2964 2961 2958 2955 2953 2950 2946 2942 2937
3140 3136 3131 3125 3126 3122 3117 3109 3107 3103 3102 3098 3090 3085 3082 3077 3071 3065 3060 3055 3047 3040 3035 3029 3021 3015 3008 3001 2993 2986 2979 2973 2968 2963 2959 2957 2954 2951 2949 2946 2942 2938 2934 2929
3133 3132 3129 3122 3121 3115 3109 3105 3102 3095 3094 3090 3084 3079 3076 3069 3063 3059 3055 3047 3040 3033 3025 3020 3013 3005 2999 2992 2984 2976 2970 2965 2961 2957 2955 2951 2947 2945 2942 2938 2934 2930 2925 2920
3130 3127 3125 3121 3114 3104 3102 3098 3097 3091 3084 3084 3078 3072 3067 3062 3053 3051 3045 3038 3031 3024 3018 3011 3003 2995 2987 2979 2971 2965 2960 2957 2954 2951 2947 2945 2942 2939 2935 2931 2926 2922 2916 2911
3128 3126 3125 3121 3111 3097 3094 3092 3089 3085 3074 3074 3071 3067 3058 3051 3044 3036 3033 3028 3020 3014 3008 3000 2993 2985 2976 2968 2961 2956 2952 2949 2947 2945 2944 2940 2936 2932 2927 2923 2918 2913 2907 2901
3121 3120 3117 3111 3105 3090 3086 3086 3082 3079 3072 3069 3062 3056 3050 3044 3039 3032 3025 3018 3012 3005 2998 2991 2982 2974 2966 2959 2953 2949 2947 2944 2942 2940 2938 2935 2930 2925 2921 2915 2910 2905 2898 2892
3118 3116 3111 3103 3099 3086 3086 3084 3083 3076 3065 3061 3053 3047 3040 3035 3027 3022 3016 3010 3004 2995 2988 2980 2971 2965 2957 2952 2949 2946 2943 2940 2938 2935 2932 2928 2923 2918 2913 2908 2903 2897 2890 2884
3108 3109 3102 3099 3089 3081 3080 3078 3071 3066 3058 3050 3045 3038 3033 3027 3021 3014 3008 3001 2994 2986 2978 2970 2964 2956 2951 2948 2945 2943 2940 2937 2933 2930 2925 2921 2917 2912 2907 2901 2896 2889 2883 2876
3094 3097 3089 3084 3076 3073 3068 3064 3063 3055 3048 3042 3036 3028 3024 3017 3012 3006 2999 2992 2984 2977 2970 2963 2956 2951 2947 2943 2941 2938 2935 2932 2927 2923 2919 2915 2910 2906 2901 2895 2889 2883 2876 2870
3089 3085 3078 3067 3062 3059 3055 3056 3052 3045 3039 3031 3026 3020 3014 3010 3005 2997 2990 2983 2974 2967 2960 2954 2949 2946 2943 2939 2936 2933 2929 2925 2921 2917 2913 2909 2904 2899 2894 2889 2883 2877 2872 2864
3077 3071 3069 3057 3056 3053 3045 3043 3041 3035 3026 3022 3017 3010 3008 3002 2994 2988 2981 2973 2966 2959 2953 2948 2945 2941 2938 2935 2931 2926 2924 2919 2915 2911 2907 2903 2898 2893 2888 2883 2878 2874 2867 2861